Lumberton, NC

12:19 PM EDT on March 30, 2017 (GMT -0400)
Lumberton Municipal

Weather History for KLBT - January, 2014

Change the Weather History Date:

Tuesday, January 28, 2014

  Actual Average Record
Temperature  
Mean Temperature 34 °F 44 °F  
Max Temperature 45 °F 55 °F 73 °F (1999)
Min Temperature 22 °F 33 °F 19 °F (2000)
Degree Days  
Heating Degree Days 31 21  
Month to date heating degree days 660 609  
Since 1 July heating degree days 1657 1659  
Cooling Degree Days 0 0  
Month to date cooling degree days 0 0  
Year to date cooling degree days 0 0  
Moisture  
Dew Point 15 °F    
Average Humidity 56    
Maximum Humidity 88    
Minimum Humidity 24    
Precipitation  
Precipitation 0.23 in 0.12 in 0.23 in (2014)
Month to date precipitation 3.00 2.62  
Year to date precipitation 3.00 2.62  
Sea Level Pressure  
Sea Level Pressure 30.19 in    
Wind  
Wind Speed 13 mph (NNE)    
Max Wind Speed 22 mph    
Max Gust Speed 28 mph    
Visibility 6 miles    
Events Fog , Rain , Snow    
T = Trace of Precipitation, MM = Missing Value Source: NWS Daily Summary

Daily Weather History Graph

Daily Weather History Graph

Search for Another Location

Airport or City:

Trip Planner

Search our weather history database for the weather conditions in past years. The results will help you decide how hot, cold, wet, or windy it might be!

Date:

Astronomy

Jan. 28, 2014 Rise Set
Actual Time 7:17 AM EST 5:41 PM EST
Civil Twilight 6:50 AM EST 6:08 PM EST
Nautical Twilight 6:20 AM EST 6:38 PM EST
Astronomical Twilight 5:50 AM EST 7:08 PM EST
Moon 4:55 AM EST (1/28) 3:31 PM EST (1/28)
Length of Visible Light 11h 18m
Length of Day
10h 24m
Waning Crescent, 7% of the Moon is Illuminated
Jan 28
Waning Crescent
Jan 30
New
Feb 6
First Quarter
Feb 14
Full
Feb 22
Last Quarter

Hourly Weather History & Observations

Time (EST) Temp. Windchill Dew Point Humidity Pressure Visibility Wind Dir Wind Speed Gust Speed Precip Events Conditions
12:54 AM 41.0 °F 33.9 °F 24.1 °F 51% 30.06 in 10.0 mi NNE 12.7 mph 24.2 mph N/A   Clear
1:54 AM 39.0 °F 30.3 °F 15.1 °F 38% 30.09 in 10.0 mi NNE 16.1 mph - N/A   Clear
2:54 AM 36.0 °F 26.3 °F 5.0 °F 27% 30.11 in 10.0 mi NNE 16.1 mph - N/A   Clear
3:54 AM 34.0 °F 23.8 °F -0.9 °F 23% 30.14 in 10.0 mi North 16.1 mph - N/A   Clear
4:54 AM 33.1 °F 22.2 °F 1.9 °F 27% 30.16 in 10.0 mi NNE 17.3 mph 24.2 mph N/A   Clear
5:54 AM 32.0 °F 22.5 °F 3.9 °F 31% 30.19 in 10.0 mi NE 12.7 mph 23.0 mph N/A   Partly Cloudy
6:54 AM 32.0 °F 22.5 °F 5.0 °F 32% 30.23 in 10.0 mi NNE 12.7 mph - N/A   Scattered Clouds
7:54 AM 32.0 °F 20.8 °F 9.0 °F 38% 30.25 in 10.0 mi NE 17.3 mph 23.0 mph N/A   Overcast
8:54 AM 32.0 °F 23.6 °F 9.0 °F 38% 30.27 in 10.0 mi NE 10.4 mph - N/A   Mostly Cloudy
9:54 AM 32.0 °F 22.1 °F 9.0 °F 38% 30.27 in 10.0 mi NE 13.8 mph 20.7 mph N/A   Partly Cloudy
10:54 AM 33.1 °F 23.4 °F 7.0 °F 34% 30.27 in 10.0 mi NE 13.8 mph 21.9 mph N/A   Partly Cloudy
11:54 AM 35.1 °F 25.5 °F 8.1 °F 33% 30.25 in 10.0 mi NNE 15.0 mph 20.7 mph N/A   Clear
12:54 PM 36.0 °F 27.1 °F 7.0 °F 30% 30.22 in 10.0 mi NE 13.8 mph - N/A   Clear
1:54 PM 35.1 °F 25.5 °F 6.1 °F 30% 30.19 in 10.0 mi NNE 15.0 mph - N/A   Overcast
2:54 PM 33.1 °F 23.4 °F 7.0 °F 34% 30.19 in 10.0 mi NNE 13.8 mph - N/A   Overcast
3:54 PM 30.9 °F 23.5 °F 12.0 °F 46% 30.21 in 8.0 mi NE 8.1 mph - 0.00 in   Overcast
4:17 PM 30.0 °F 21.7 °F 16.0 °F 56% 30.19 in 4.0 mi ENE 9.2 mph - 0.01 in Rain Light Freezing Rain
4:54 PM 28.9 °F 21.1 °F 19.0 °F 67% 30.19 in 5.0 mi NE 8.1 mph - 0.02 in Rain Light Freezing Rain
5:54 PM 27.0 °F 19.5 °F 21.0 °F 78% 30.20 in 5.0 mi ENE 6.9 mph - 0.03 in Rain Light Freezing Rain
6:11 PM 27.0 °F 18.7 °F 21.9 °F 81% 30.18 in 5.0 mi NE 8.1 mph - 0.00 in   Overcast
6:19 PM 27.0 °F 16.7 °F 21.0 °F 78% 30.18 in 6.0 mi NE 11.5 mph - 0.00 in Rain Light Freezing Rain
6:54 PM 27.0 °F 15.2 °F 21.0 °F 78% 30.20 in 4.0 mi NNE 15.0 mph - 0.01 in Rain Light Freezing Rain
7:50 PM 24.8 °F 14.6 °F 21.2 °F 86% 30.17 in 4.0 mi NNE 10.4 mph - 0.01 in   Overcast
7:54 PM 25.0 °F 14.8 °F 21.9 °F 88% 30.18 in 4.0 mi NNE 10.4 mph - 0.01 in   Overcast
8:04 PM 25.0 °F 13.6 °F 21.0 °F 85% 30.17 in 4.0 mi North 12.7 mph - 0.01 in Rain Light Freezing Rain
8:11 PM 25.0 °F 14.2 °F 21.0 °F 85% 30.17 in 2.5 mi NNE 11.5 mph - 0.01 in Rain Light Freezing Rain
8:21 PM 25.0 °F 14.2 °F 21.0 °F 85% 30.17 in 4.0 mi NNE 11.5 mph - 0.02 in Rain Light Freezing Rain
8:52 PM 24.8 °F 14.6 °F 19.4 °F 80% 30.20 in 4.0 mi NNE 10.4 mph - 0.03 in   Overcast
8:54 PM 25.0 °F 14.8 °F 19.9 °F 81% 30.21 in 4.0 mi North 10.4 mph - 0.04 in   Overcast
9:10 PM 24.1 °F 14.4 °F 21.0 °F 88% 30.19 in 2.5 mi NNE 9.2 mph - 0.02 in   Overcast
9:41 PM 24.1 °F 13.7 °F 21.0 °F 88% 30.18 in 4.0 mi NNE 10.4 mph - 0.05 in   Overcast
9:54 PM 24.1 °F 13.1 °F 19.9 °F 84% 30.19 in 4.0 mi North 11.5 mph - 0.06 in   Overcast
10:54 PM 23.0 °F 11.1 °F 19.9 °F 88% 30.19 in 2.5 mi North 12.7 mph - 0.03 in Snow Light Snow
11:09 PM 23.0 °F 13.1 °F 19.9 °F 88% 30.18 in 1.5 mi North 9.2 mph - 0.01 in Snow Light Snow
11:22 PM 23.0 °F 11.1 °F 19.9 °F 88% 30.18 in 1.0 mi North 12.7 mph - 0.01 in Snow Light Snow
11:40 PM 21.9 °F 10.4 °F 19.0 °F 89% 30.18 in 0.8 mi NNE 11.5 mph - 0.01 in Snow Light Snow
11:54 PM 21.9 °F 9.2 °F 19.0 °F 89% 30.18 in 0.5 mi North 13.8 mph - 0.03 in Fog , Snow Snow